[keps] orb10210.2l.amsat
Ray Hoad
ray.hoad at mypbmail.com
Thu Jul 29 19:31:51 PDT 2010
SB KEPS @ AMSAT $ORB10210.N
2Line Orbital Elements 10210.AMSAT
HR AMSAT ORBITAL ELEMENTS FOR AMATEUR SATELLITES IN NASA FORMAT
FROM WA5QGD FORT WORTH,TX July 29, 2010
Send Subscribe/unsubscribe to KEPS at http://www.amsat.org/mailman/listinfo/keps
BID: ORB10210.N
DECODE 2-LINE ELSETS WITH THE FOLLOWING KEY:
1 AAAAAU 00 0 0 BBBBB.BBBBBBBB .CCCCCCCC 00000-0 00000-0 0 DDDZ
2 AAAAA EEE.EEEE FFF.FFFF GGGGGGG HHH.HHHH III.IIII JJ.JJJJJJJJKKKKKZ
KEY: A-CATALOGNUM B-EPOCHTIME C-DECAY D-ELSETNUM E-INCLINATION F-RAAN
G-ECCENTRICITY H-ARGPERIGEE I-MNANOM J-MNMOTION K-ORBITNUM Z-CHECKSUM
TO ALL RADIO AMATEURS BT
AO-07
1 07530U 74089B 10209.62210797 -.00000027 00000-0 10000-3 0 08408
2 07530 101.4003 223.8802 0011700 191.9888 168.0908 12.53578955633648
FO-29
1 24278U 96046B 10210.84875989 -.00000032 00000-0 30200-5 0 3642
2 24278 098.5143 034.0791 0351102 013.3400 347.6736 13.52951862688877
SO-33
1 25509U 98061B 10209.49588489 .00000074 00000-0 10750-5 0 07629
2 25509 031.4354 274.9197 0354248 291.0443 065.2642 14.28317140613962
RS-22
1 27939U 03042A 10210.65218928 .00000045 00000-0 17417-4 0 4048
2 27939 097.8865 074.3252 0012514 288.1174 071.8656 14.63436995365166
VO-52
1 28650U 05017B 10209.66327654 .00000441 00000-0 62031-4 0 05648
2 28650 097.6897 261.4747 0027749 138.8476 221.4828 14.81779486282831
SO-67
1 35870U 09049F 10210.88368295 .00000589 00000-0 29596-4 0 9579
2 35870 097.3287 258.8837 0002314 342.4137 130.6659 15.20971675 47943
HO-68
1 36122U 09072B 10210.66067306 -.00000045 00000-0 00000 0 0 5311
2 36122 100.4671 270.6557 0007139 239.2684 120.7732 13.16281303 29800
UO-11
1 14781U 84021B 10209.67444704 .00000194 00000-0 32789-4 0 03007
2 14781 098.0527 261.5361 0010211 103.6563 256.5761 14.79819934417949
AO-16
1 20439U 90005D 10209.41766535 .00000018 00000-0 22126-4 0 09571
2 20439 098.3340 165.7066 0011795 047.3332 312.8839 14.31868247071289
LO-19
1 20442U 90005G 10209.47863785 -.00000004 00000-0 13764-4 0 08669
2 20442 098.2954 171.4012 0012651 042.2184 317.9951 14.32098608071467
AO-27
1 22825U 93061C 10210.78576810 .00000021 00000-0 25200-4 0 5895
2 22825 098.4872 157.6391 0009151 139.3693 220.8175 14.29303094878138
IO-26
1 22826U 93061D 10209.79372510 -.00000009 00000-0 13208-4 0 3256
2 22826 098.4816 157.2584 0009473 137.0230 223.1699 14.29559489878101
GO-32
1 25397U 98043D 10209.58107129 -.00000044 00000-0 -16975-5 0 2452
2 25397 098.3125 214.7530 0002109 121.4977 238.6402 14.23181548625938
NO-44
1 26931U 01043C 10211.01982251 .00000109 00000-0 74924-4 0 5202
2 26931 067.0525 093.6218 0005133 266.6714 093.3771 14.29605674460870
SO-50
1 27607U 02058C 10210.48285366 -.00000002 00000-0 21382-4 0 2315
2 27607 064.5561 228.0485 0036774 057.2977 303.1669 14.71557492408605
CO-55
1 27844U 03031E 10210.56244351 .00000055 00000-0 45939-4 0 9002
2 27844 098.7099 218.9287 0010920 050.8269 309.3892 14.20720089367102
CO-57
1 27848U 03031J 10209.54167995 .00000050 00000-0 43742-4 0 08509
2 27848 098.7144 217.0242 0010833 057.8585 302.3652 14.20511793366914
AO-51
1 28375U 04025K 10209.68085420 .00000006 00000-0 14685-4 0 07364
2 28375 098.0642 200.8179 0084352 332.2439 027.4256 14.40692023319483
GENESAT1
1 29655U 06058C 10210.83748197 .00846978 45181-3 54706-3 0 2078
2 29655 040.0099 106.7615 0013119 272.9540 086.9762 16.16306164206832
CP3
1 31129U 07012N 10208.72822494 -.00000178 00000-0 -30563-4 0 06395
2 31129 097.9366 246.1249 0103827 107.9025 253.3558 14.52280958173748
CO-65
1 32785U 08021C 10209.22431302 .00000454 00000-0 64231-4 0 07446
2 32785 097.8936 273.5792 0015401 147.0881 213.1278 14.81686165121569
KKS-1
1 33493U 09002B 10210.95327096 .00000388 00000-0 56996-4 0 7062
2 33493 098.0899 330.8199 0020283 006.8499 353.2970 14.81044718 81816
SOHLA-1
1 33496U 09002E 10209.69652775 .00000170 00000-0 36904-4 0 01676
2 33496 098.0622 318.2394 0007755 073.9675 286.2394 14.69505687080974
TISAT-1
1 36799U 10035E 10209.69704101 .00000288 00000-0 45197-4 0 374
2 36799 098.1457 269.0818 0014431 240.1269 119.8467 14.80127943 2457
STUDSAT
1 36801U 10035G 10210.58032597 .00000250 00000-0 33275-4 0 408
2 36801 098.1468 269.9666 0013956 229.4815 130.5682 14.79749831 2588
NOAA-10
1 16969U 86073A 10209.93039760 -.00000085 00000-0 -16886-4 0 01501
2 16969 098.6543 238.5021 0013224 090.1716 270.0964 14.27421877241531
NOAA-11
1 19531U 88089A 10209.67899019 -.00000246 00000-0 -10462-3 0 01614
2 19531 098.7699 297.9982 0012158 033.1182 327.0762 14.14929942127002
NOAA-12
1 21263U 91032A 10209.68918275 .00000032 00000-0 32327-4 0 06507
2 21263 098.7647 222.8422 0013288 048.8181 311.4143 14.25645696998316
MET-3/5
1 21655U 91056A 10209.58321169 .00000051 00000-0 10000-3 0 08749
2 21655 082.5577 279.3902 0012343 243.3329 116.6480 13.17022434911123
MET-2/21
1 22782U 93055A 10210.52260606 .00000035 00000-0 18485-4 0 8429
2 22782 082.5442 218.8519 0020741 285.6050 074.2835 13.83645734853933
OKEAN-4
1 23317U 94066A 10209.68704178 .00000345 00000-0 39456-4 0 02989
2 23317 082.5431 315.1229 0023884 104.0278 256.3570 14.82840466852603
NOAA-14
1 23455U 94089A 10209.68483216 -.00000028 00000-0 85685-5 0 01427
2 23455 098.8772 290.1377 0010201 115.6143 244.6097 14.13790121803367
NOAA-15
1 25338U 98030A 10209.72606656 .00000028 00000-0 30701-4 0 04643
2 25338 098.6212 195.9107 0009930 318.6546 041.3880 14.24843510634668
RESURS
1 25394U 98043A 10209.65768786 -.00000015 00000-0 11119-4 0 05655
2 25394 098.3046 225.4797 0002493 091.2430 268.9037 14.24206539626250
FENGYUN1
1 25730U 99025A 10209.87110334 .00000931 00000-0 56916-3 0 01008
2 25730 098.7857 173.7405 0022310 144.9640 215.2987 14.08222558577556
OKEAN-0
1 25860U 99039A 10210.71785036 .00000046 00000-0 14481-4 0 591
2 25860 097.8355 181.9779 0000960 046.1245 314.0039 14.73651322593167
NOAA-16
1 26536U 00055A 10209.66316794 .00000178 00000-0 12164-3 0 09416
2 26536 099.1694 228.1082 0009941 217.5111 142.5357 14.12571040507684
NOAA-17
1 27453U 02032A 10209.72843161 .00000200 00000-0 10474-3 0 09386
2 27453 098.4289 258.4942 0012038 021.1400 339.0265 14.24177325420616
NOAA-18
1 28654U 05018A 10209.77236527 .00000218 00000-0 14518-3 0 04235
2 28654 098.9516 155.9205 0013508 298.5873 061.3944 14.11374774267305
NOAA-19
1 33591U 09005A 10209.76948770 -.00000071 00000-0 -15190-4 0 06217
2 33591 098.7897 151.0096 0014195 167.4939 192.6607 14.11068911075771
HUBBLE
1 20580U 90037B 10209.73785346 .00000455 00000-0 22002-4 0 6114
2 20580 028.4699 328.5983 0003223 280.9802 079.0485 15.01004457911003
ISS
1 25544U 98067A 10210.98143638 .00011375 00000-0 92032-4 0 6080
2 25544 051.6458 011.5880 0007700 162.4749 289.0405 15.71338800670200
CO-58
1 28895U 05043F 10210.68088673 .00000209 00000-0 52899-4 0 6438
2 28895 098.0089 093.7390 0018527 149.2671 210.9613 14.59914421253183
FALCON
1 30776U 07006E 10211.04036157 .00000727 00000-0 54976-4 0 8818
2 30776 035.4323 144.1096 0001070 247.2813 112.7796 15.03731875186519
MAST
1 31126U 07012K 10209.59237586 .00000023 00000-0 15272-4 0 09255
2 31126 097.9359 249.4581 0095666 097.3456 263.8619 14.53604808174079
CAPE1
1 31130U 07012P 10209.06394437 .00000331 00000-0 86385-4 0 09458
2 31130 097.9358 246.2854 0104040 107.3307 253.9424 14.52202868173594
COMPASS
1 32787U 08021E 10209.28960679 .00000586 00000-0 80544-4 0 07359
2 32787 097.8923 273.4782 0016360 148.0261 212.1916 14.81919373121583
AAUSAT2
1 32788U 08021F 10209.62624064 .00000879 00000-0 11705-3 0 07293
2 32788 097.8928 273.9476 0015981 147.8300 212.3922 14.82065916121645
DO-64
1 32789U 08021G 10209.69838449 .00000933 00000-0 12343-3 0 07486
2 32789 097.8990 274.5387 0016386 146.3269 213.8967 14.82227774121659
CO-66
1 32791U 08021J 10209.18254145 .00000069 00000-0 15416-4 0 07304
2 32791 097.8941 273.3828 0016384 146.7635 213.4597 14.81695923121529
RS-30
1 32953U 08025A 10210.86914435 .00000010 00000-0 00000 0 0 9092
2 32953 082.5013 003.1306 0019041 012.8718 347.2847 12.43006888 99045
TACSAT-3
1 35001U 09028A 10210.72639035 .00004490 00000-0 10694-3 0 3452
2 35001 040.4562 318.5197 0022344 321.8881 038.0354 15.42138472 67207
PHARMSAT
1 35002U 09028B 10210.66614138 .00004399 00000-0 10299-3 0 3261
2 35002 040.4704 316.7328 0025281 324.9346 034.9810 15.42627659 67218
HAWKSAT1
1 35003U 09028C 10209.71041614 .00009349 00000-0 18942-3 0 3486
2 35003 040.4604 316.0175 0023564 335.9357 024.0354 15.46045923 67144
CP6
1 35004U 09028D 10209.68348967 .00011431 00000-0 22316-3 0 3456
2 35004 040.4624 314.9241 0022385 338.9135 021.0753 15.46999715 67142
AEROCUB3
1 35005U 09028E 10209.64446964 .00038014 00000-0 57369-3 0 03978
2 35005 040.4653 310.4925 0021020 358.6152 001.4603 15.53714712067199
CASTOR
1 35694U 09038F 10210.73514875 .00268297 48717-4 21448-3 0 5994
2 35694 051.6290 330.7188 0006024 339.7601 020.3092 16.13834798 57900
METEOR-M
1 35865U 09049A 10210.99059917 .00000176 00000-0 10000-3 0 5132
2 35865 098.7550 264.4777 0001527 248.3927 111.7083 14.21831100 44808
RS-38
1 35869U 09049E 10210.67600278 .00000177 00000-0 10000-3 0 5246
2 35869 098.7538 264.2002 0003769 241.3337 118.7444 14.21985582 44762
/EX
More information about the Keps
mailing list